Starlink 32493

operational
NORAD ID: 62025 Int'l Des: 2024-213 Owner: SPXS Country: US Constellation: starlink
LEOCIRCULAR

About Starlink 32493

Description loading...

Live Position

Loading 3D Globe...

Upcoming Passes

Altitude History

Altitude vs Time

uPlot chart will show altitude changes over time

Two-Line Element Set

1 62025U 24213T 25349.90592076 .00017430 00000-0 59897-3 0 9994
2 62025 53.1596 197.5443 0001624 63.7720 296.3448 15.30213762 60324
Epoch: Dec 15, 2025 • Age: 31 hours

Current Status

Altitude 475.4 km
Velocity 7.63 km/s
Sub-Earth Point 10.79°N, 146.31°W
Launch Date Nov 18, 2024
Age 1 years
Type internet

Technical Details

Classification Payload
Mass 730.00 kg
Dry Mass 700.00 kg
Total Mass 730.00 kg
Length 0.30 m
Diameter 4.10 m
Span 29.00 m
Shape Box + pan
Manufacturer SPXS
Bus Type Starlink V2M
Phase Status In Orbit
Owner/State SPXS/US

Large Constellations

Loading constellations...